This is the latest recevied weather packets stored in our database for station/object OK3MS-5. If no packets are shown the sender has not sent any weather packets the latest 10 day(s).
| Time | Temp. | Humidity | Pressure | Rain* | Wind** | Luminosity | Snow |
|---|---|---|---|---|---|---|---|
| 1788004202 | 22.22° C | 58% | 1014.7 hPa | 0 mm | - | 764 W/m² | - |
| 1788003907 | 22.78° C | 58% | 1014.7 hPa | 0 mm | - | 732 W/m² | - |
| 1788003607 | 22.78° C | 58% | 1014.7 hPa | 0 mm | - | 838 W/m² | - |
| 1788003304 | 22.78° C | 56% | 1014.6 hPa | 0 mm | - | 784 W/m² | - |
| 1788003003 | 22.22° C | 59% | 1014.8 hPa | 0 mm | - | 722 W/m² | - |
| 1788002704 | 21.67° C | 64% | 1015 hPa | 0 mm | - | 737 W/m² | - |
| 1788002402 | 21.67° C | 63% | 1015 hPa | 0 mm | - | 182 W/m² | - |
| 1788002105 | 21.67° C | 64% | 1015.1 hPa | 0 mm | - | 276 W/m² | - |
| 1788001803 | 21.11° C | 63% | 1015.3 hPa | 0 mm | - | 185 W/m² | - |
| 1788001507 | 20.56° C | 66% | 1015.3 hPa | 0 mm | - | 788 W/m² | - |
| 1788001207 | 21.11° C | 66% | 1015.3 hPa | 0 mm | - | 148 W/m² | - |
| 1788000907 | 20.56° C | 67% | 1015.4 hPa | 0 mm | - | 203 W/m² | - |
| 1788000606 | 20.56° C | 67% | 1015.4 hPa | 0 mm | - | 181 W/m² | - |
| 1788000303 | 20.56° C | 63% | 1015.3 hPa | 0 mm | - | 150 W/m² | - |
| 1788000003 | 21.67° C | 61% | 1015.4 hPa | 0 mm | - | 202 W/m² | - |
| 1787999703 | 21.11° C | 62% | 1015.4 hPa | 0 mm | - | 162 W/m² | - |
| 1787999405 | 21.67° C | 60% | 1015.1 hPa | 0 mm | - | 239 W/m² | - |
| 1787999102 | 21.67° C | 60% | 1015.3 hPa | 0 mm | - | 766 W/m² | - |
| 1787998803 | 21.67° C | 58% | 1015.2 hPa | 0 mm | - | 702 W/m² | - |
| 1787998504 | 21.67° C | 59% | 1015.2 hPa | 0 mm | - | 742 W/m² | - |
| 1787998205 | 21.11° C | 61% | 1015.3 hPa | 0 mm | - | 738 W/m² | - |
| 1787997907 | 21.67° C | 62% | 1015.3 hPa | 0 mm | - | 777 W/m² | - |
| 1787997603 | 21.67° C | 61% | 1015.4 hPa | 0 mm | - | 785 W/m² | - |
| 1787997304 | 21.67° C | 64% | 1015.5 hPa | 0 mm | - | 228 W/m² | - |
| 1787997004 | 21.67° C | 68% | 1015.4 hPa | 0 mm | - | 722 W/m² | - |
* Rain latest hour (hover to see other rain measurements)
** Current wind speed in m/s (hover to see current wind gust speed)